Location: Martz Observatory
(42.0083°N, 79.0667°W)
Time: 18:47:59
(UTC-04:00)

Daily predictions for brighter satellites

Satellite Brightness Start Highest point End
(mag) Time Altitude Azimuth Time Altitude Azimuth Time Altitude Azimuth
Milstar 3 Cent rocket 4.3 21:16:37 10° SW 21:21:44 24° S 21:29:54 10° SE
Cosmos 1459 Rocket 4.2 21:21:04 10° N 21:27:15 57° ENE 21:33:18 10° SSE
KORONAS-FOTON 4.2 21:31:08 10° SSE 21:34:44 43° E 21:38:21 10° NNE
CZ-3B R/B 3.9 21:33:07 10° SSW 21:35:54 51° SE 21:44:25 10° NE
Cosmos 1741 Rocket 4.4 21:31:14 10° SSW 21:36:32 71° WNW 21:41:51 10° NNE
Cosmos 2100 Rocket 4.1 21:32:32 10° N 21:38:53 75° E 21:45:15 10° SSE
USA 186 3.9 21:37:57 10° SW 21:39:13 14° W 21:40:28 10° WNW
H-2A R/B 3.5 21:37:17 10° ESE 21:41:36 26° ENE 21:45:59 10° N
ERBS 3.1 21:38:39 10° NW 21:41:55 42° NE 21:45:09 10° ESE
Cosmos 1076 Rocket 3.5 21:38:32 10° S 21:42:53 82° E 21:47:16 10° N
GPS 2-05 Rocket1 4.2 21:40:57 10° SSW 21:43:09 18° SSE 21:45:06 11° SE
Meteor 2-17 Rocket 4.5 21:38:15 10° N 21:44:27 81° E 21:50:35 10° S
Cosmos 2173 Rocket 4.0 21:39:15 10° N 21:45:27 77° E 21:51:42 10° SSE
Lacrosse 5 1.9 21:42:00 10° NW 21:47:06 83° NE 21:51:53 12° SE
Cosmos 2123 Rocket 4.5 21:42:53 10° SSE 21:48:36 42° E 21:54:22 10° NNE
SPOT 5 3.7 21:44:59 10° SE 21:49:30 38° ENE 21:54:15 10° N
Cosmos 2061 Rocket 4.1 21:45:49 10° N 21:52:14 80° E 21:58:40 10° S
NOAA 11 4.3 21:47:54 10° SSE 21:53:16 68° ENE 21:58:40 10° N
Abrixas rocket 2.4 21:51:10 10° WNW 21:54:25 67° NNE 21:57:18 12° ESE
Cosmos 1408 Rocket 3.5 21:51:14 10° S 21:55:30 69° E 21:59:49 10° NNE
YAOGAN 6 3.2 21:53:18 10° S 21:56:53 56° W 22:00:32 10° NNW
MetOp-B 4.3 21:53:21 10° SSE 21:58:38 65° ENE 22:03:57 10° N
Cosmos 2221 3.6 21:54:49 10° NNW 21:59:00 44° W 22:03:10 10° SSW
BREEZE-M DEB (TANK) 3.7 21:58:36 10° WNW 22:00:30 27° N 22:04:08 10° ENE
Cosmos 2227 4.3 21:56:23 10° SSW 22:02:07 88° WNW 22:07:52 10° NNE
Cosmos 1626 4.0 22:03:26 13° ESE 22:04:45 16° E 22:07:02 10° NE
Meteor 1-29 4.2 22:02:18 10° N 22:05:37 44° WNW 22:08:54 10° SW
Cosmos 1814 Rocket 4.1 22:01:51 10° NNW 22:07:11 67° ENE 22:11:34 15° SSE
Cosmos 1726 2.0 22:04:06 10° N 22:07:47 70° E 22:10:47 15° SSE
Cosmos 1725 Rocket 4.1 22:04:35 10° N 22:10:47 61° E 22:16:09 14° SSE
Cosmos 1763 Rocket 3.7 22:07:38 10° NNW 22:12:41 57° ENE 22:16:28 17° SE
Cosmos 841 Rocket 4.0 22:07:47 10° N 22:12:51 46° ENE 22:16:36 17° SE
Terra 3.3 22:11:39 13° ESE 22:14:39 23° ENE 22:18:21 10° NNE
Cosmos 332 Rocket 3.8 22:10:42 10° NNW 22:15:38 86° WSW 22:19:41 15° SSE
Cosmos 1802 Rocket 4.2 22:09:46 10° NNW 22:15:53 73° W 22:22:00 10° S
Tiangong 1 0.6 22:13:58 10° W 22:16:47 87° S 22:18:28 21° ESE
Cosmos 1500 Rocket 4.1 22:13:37 15° SSE 22:16:53 41° E 22:21:04 10° NNE
Cosmos 2263 Rocket 2.5 22:12:11 10° S 22:17:24 43° ESE 22:22:40 10° NE
Cosmos 1486 Rocket 4.1 22:12:34 10° S 22:17:43 58° ESE 22:22:56 10° NNE
ATLAS 5 CENTAUR R/B 4.2 22:13:50 10° W 22:17:53 27° NW 22:22:18 10° NNE
Helios 1B rocket 4.4 22:15:12 10° N 22:18:51 30° WNW 22:22:29 10° SW
Abrixas 2.1 22:19:02 10° SW 22:21:41 61° SSE 22:24:22 10° ENE
Cosmos 1300 2.6 22:19:44 10° N 22:23:36 85° E 22:26:17 19° S
USA 234 3.3 22:27:53 10° NE 22:34:17 54° SE 22:40:38 10° SSW
SPOT 1/Viking Rocket 3.5 22:33:04 20° SSE 22:36:40 77° ENE 22:41:50 10° N
Cosmos 2016 Rocket 4.5 22:30:45 10° NNW 22:36:52 59° W 22:42:53 10° S
Cosmos 1328 Rocket 3.7 22:32:38 10° NNW 22:36:58 73° W 22:40:05 18° S
Cosmos 1151 Rocket 3.1 22:32:47 10° N 22:37:08 61° E 22:39:31 25° SSE
SL-14 R/B 3.6 22:36:06 10° SSW 22:40:01 65° W 22:43:56 10° N
Cosmos 1515 Rocket 3.5 22:41:01 10° N 22:45:22 82° W 22:47:59 24° S
ERS-1 Rocket 4.3 22:42:18 10° SSW 22:46:52 34° W 22:51:27 10° NNW
CZ-4C R/B 3.2 22:46:16 23° ESE 22:46:57 23° ESE 22:51:22 10° ENE
Delta 2 Rocket 4.5 22:43:43 10° WSW 22:49:06 43° S 22:52:25 22° ESE
H-2A R/B 3.0 22:47:34 24° ESE 22:49:17 34° ENE 22:53:07 10° N
EO 1 Delta rocket 3.9 22:47:12 20° S 22:50:23 73° W 22:55:06 10° NNW
Cosmos 1844 Rocket 4.2 22:50:05 17° ESE 22:50:30 17° E 22:53:57 10° ENE
Cosmos 1743 Rocket 4.0 22:46:32 11° SSW 22:50:37 60° W 22:54:55 10° N
USA 245 4.1 22:48:40 20° SSW 22:50:57 46° W 22:55:15 10° NNW
ARGOS 3.7 22:46:39 15° S 22:51:02 54° W 22:56:21 10° NNW
RESURS DK-1 4.1 22:48:28 10° NW 22:51:54 25° WSW 22:54:38 14° SSW
Cosmos 2058 2.8 22:50:47 26° S 22:53:07 77° E 22:57:21 10° N
Cosmos 1455 2.8 22:52:39 10° N 22:56:21 42° ENE 22:57:20 34° ESE
Meteor 2-12 Rocket 4.4 22:53:58 10° N 23:00:04 79° E 23:03:35 27° SSE
Cosmos 2233 Rocket 3.9 22:53:58 10° N 23:00:13 89° W 23:04:08 24° S
Cosmos 2228 Rocket 4.2 22:59:47 10° NNW 23:04:05 41° W 23:07:15 17° SSW
Cosmos 1503 Rocket 3.9 23:00:28 19° SSW 23:04:14 78° ESE 23:09:25 10° NNE
Cosmos 371 Rocket 4.5 23:00:00 10° NW 23:04:21 35° WSW 23:07:24 18° SSW
Cosmos 1943 3.5 22:58:55 10° NNW 23:04:29 60° WSW 23:07:41 25° S
Cosmos 540 Rocket 3.6 23:01:08 10° NNW 23:06:16 65° ENE 23:08:29 33° SE
CZ-4B R/B 4.3 23:03:39 10° NNE 23:08:27 35° E 23:09:44 30° SE
SME Rocket 4.3 23:11:22 25° E 23:12:43 31° ENE 23:16:59 10° N
Cosmos 968 Rocket 4.3 23:12:33 29° ESE 23:13:22 31° E 23:17:57 10° NE
ERBS 4.3 23:15:59 10° W 23:18:19 17° SW 23:18:29 17° SW
H-2A R/B 2.9 23:17:23 21° SSW 23:20:42 45° W 23:25:55 10° NNW
CZ-2C R/B 4.3 23:18:41 10° NE 23:21:50 16° E 23:22:07 16° E
Cosmos 1869 3.7 23:21:18 10° N 23:25:08 46° E 23:25:35 44° ESE
Sich 1 3.2 23:28:52 46° ESE 23:29:22 49° E 23:33:31 10° NNE
Lacrosse 5 3.8 23:26:23 10° W 23:29:27 16° WSW 23:31:05 14° SW
Abrixas rocket 4.4 23:28:30 10° W 23:29:56 17° WSW 23:29:56 17° WSW
Cosmos 2151 4.4 23:27:50 15° SW 23:30:57 34° WNW 23:34:55 10° N
Cosmos 1513 Rocket 4.5 23:31:41 10° N 23:37:52 69° E 23:40:12 39° SSE
Cosmos 1400 Rocket 4.1 23:38:32 28° E 23:38:32 28° E 23:41:49 10° NNE
Cosmos 1626 3.7 23:38:03 21° WSW 23:39:49 31° WNW 23:43:11 10° NNW
CZ-4C R/B 3.8 23:40:17 49° ESE 23:41:03 58° ENE 23:45:23 10° N
SL-19 R/B 4.3 23:36:15 10° NNE 23:41:39 79° WNW 23:44:40 29° SSW
Cosmos 1707 Rocket 3.5 23:42:57 10° N 23:47:27 84° W 23:48:18 58° S
deb Chang Zheng 4 3.7 23:43:32 10° N 23:47:54 70° WNW 23:49:17 42° SW
Cosmos 2278 Rocket 3.6 23:51:08 22° E 23:51:08 22° E 23:55:11 10° NE
Terra 2.7 23:50:32 30° SW 23:52:08 40° W 23:56:37 10° NNW
ALOS 2 4.1 23:52:39 23° E 23:53:28 25° ENE 23:57:01 10° NNE
Abrixas 4.5 23:54:15 10° WNW 23:56:37 26° NNW 23:57:27 22° NNE
